Location: Newark
(13.6797°N, 8.5297°E)
Time: 00:57:15
(UTC+00:00)

SR - Pass Details

Date: 27 January 2020
Orbit: 575 x 881 km, 66.7° (Epoch: 20 February)

Event Time Altitude Azimuth Distance (km) Brightness Sun altitude
Rises 06:17:28 0° 1° (N) 3,211 ? 4.6°
Reaches altitude 10° 06:20:34 10° 18° (NNE) 2,223 ? 5.3°
Maximum altitude 06:24:10 20° 63° (ENE) 1,602 ? 6.1°
Drops below altitude 10° 06:27:33 10° 110° (ESE) 2,079 ? 6.9°
Sets 06:30:19 0° 128° (SE) 2,935 ? 7.5°
